WESTFORD NEEDLES, 3257

Orbit data source: Space-Track

WESTFORD NEEDLES, 3257 is space debris in LEO originally from a launch on Thu, 09 May 1963 UTC launched from the Air Force Western Test Range (AFWTR). Debris objects in space refer to the collection of defunct objects orbiting the Earth. Examples of debris include non-operational satellites, rocket bodies, and fragments generated from explosions, collisions, or faulty payload assembly.

Loading next visibility...
Identifier
3257, 1963-014BX
Orbit
LEO
Country
Flag of USUS
Related business
Manufacturer
Unknown
Mission
Spacecraft
Bus & Motor
Unknown
Mass
Unknown
Launch date (UTC)
1963-05-09 (63 years ago)
Launch vehicle
Unknown
Launch site
Air Force Western Test Range (AFWTR)
Object type
Payload
Rocket body
Debris
Shape & HBR
Unknown shape, 1.1 m
Radar Cross Section
Medium (>0.1 m² and <1 m²)

Expand to show TLE details & history
Last TLE update: 1 day ago

TLE from 1 day ago
0 WESTFORD NEEDLES
1 03257U 63014BX  25310.55654777  .00000086  00000-0  37048-1 0  9995
2 03257  87.3440 169.2954 0310923  26.1015 335.5157  8.65325914 40673
Epoch: 2025-11-06T13:21Z
TLE epoch observation values (Epoch: 2025-11-06T13:21:25.727Z)
Latitude
0.00001°
Longitude
-77.07496°
Altitude
3,364.042 km
Speed
6.487 km/s
True Right ascension
11h 17m 10s
True Declination
0° 00' 00"
Sunlit
Object was in daylight at epoch
Visualization orbit readout
Latitude
Unknown
Longitude
Unknown
Altitude
Unknown
Speed
Unknown
Apparent Right ascension
Unknown
Apparent Declination
Unknown
Sunlit
N/A
Visualization observer readout
Local Sidereal Time
16:13:16
Azimuth
Unknown
Elevation
Unknown
Doppler factor
Unknown
Orbital elements
Apogee altitude
3,953.087 km
Perigee altitude
3,330.017 km
Semi-major axis
10,019.689 km
Eccentricity
0.03109
Inclination
87.344°
RAAN
169.2954°
Arg. of periapsis
26.1015°
True anomaly
333.98519°
Mean anomaly
335.5157°
Eccentric anomaly
334.75595°
Mean motion
2.16402 °/min
Orbital period
166.36 mins
BSTAR
0.037048
Loading maneuver chart data...
Computing Atmospheric mass density...

Documentation

Showing up to 5 results
|